Barcelona, Spain

9:35 PM CEST on September 02, 2014 (GMT +0200)
Viladecans | Change Station
CLOSE
Current Station
Personal Weather Station
Location: Viladecans, Barcelona
Elevation: 130 ft
Nearby Weather Stations

Elev 130 ft 41.31 °N, 2.00 °E | Updated 18 seconds ago

Partly Cloudy
Partly Cloudy
74.5 °F
Feels Like 74 °F
N
1.2
Wind Variable Wind from WNW
Gusts 0.0 mph

Today
High -- | Low -- °F
--% Chance of Precip.
Yesterday
High -- | Low -- °F
Precip. -- in
7:18 AM 8:23 PM
First Quarter, 54% visible
Pressure 29.89 in
Visibility 6.2 miles
Clouds Few 3000 ft
Heat Index 74 °F
Dew Point 71 °F
Humidity 88%
Rainfall 0.00 in
Snow Depth Not available.
UV 0 out of 12
Pollen Not available.
Air Quality Not available.
Flu Activity Not available.
METAR LEBL 021900Z VRB02KT 9999 FEW030 25/21 Q1012 NOSIG

More Conditions Fewer Conditions

Pressure 29.89 in
Visibility 6.2 miles
Clouds Few 3000 ft
Heat Index 74 °F
Dew Point 71 °F
Humidity 88%
Rainfall 0.00 in
Snow Depth Not available.
UV 0 out of 12
Pollen Not available.
Air Quality Not available.
Flu Activity Not available.
METAR LEBL 021900Z VRB02KT 9999 FEW030 25/21 Q1012 NOSIG

More Conditions Fewer Conditions

10-Day Weather Forecast

Almanac

Astronomy

Sep. 02, 2014 Rise Set
Actual Time 7:18 AM CEST 8:23 PM CEST
Civil Twilight 6:50 AM CEST 8:51 PM CEST
Nautical Twilight 6:16 AM CEST 9:25 PM CEST
Astronomical Twilight 5:41 AM CEST 10:00 PM CEST
Moon 2:52 PM CEST 12:09 AM CEST
Length of Visible Light 14h 00m
Length of Day
13h 04m
Tomorrow will be 2m 39s shorter.
First Quarter, 54% of the Moon is Illuminated
Today
First Quarter
Sep 8
Full
Sep 15
Last Quarter
Sep 24
New
Oct 1
First Quarter

Today's Extremes

Country Highs Country Lows

Community

WunderPhotos

Upload Photos

1,749,750 photos uploaded!

WunderBlogs® & News

By Dr. Jeff Masters
Director of Meteorology, Weather Underground
By Kari Strenfel
Meteorologist, Weather Underground
By Christopher C. Burt
Weather Historian, Weather Underground
September 2, 2014
September 2, 2014
September 2, 2014

Nearby

Snow Depth

Not available.

Earthquake Activity

City Distance Mag. Time & Date
No recent earthquake activity has been reported nearby.
Minimum magnitude displayed is 2.5.

Coastal Water Temperatures

Place Temperature
No Stations Reporting

Nearby Weather Stations